Location: Montreal
(45.5087°N, 73.5540°W)
Time: 06:49:10
(UTC-04:00)

Envisat - Visible Passes

Search period start: 30 March 2017 00:00
Search period end: 09 April 2017 00:00
Orbit: 764 x 766 km, 98.2° (Epoch: 28 March)

Date Brightness Start Highest point End Pass type
(mag) Time Alt. Az. Time Alt. Az. Time Alt. Az.
30 Mar 2.9 20:54:15 14° SSE 20:58:41 88° ENE 21:03:48 10° NNW visible
30 Mar 5.7 22:36:23 10° WSW 22:38:23 12° W 22:40:23 10° WNW visible
31 Mar 3.4 20:17:21 10° SE 20:22:06 42° ENE 20:26:53 10° N visible
31 Mar 4.9 21:57:12 11° SSW 22:01:16 26° W 22:05:31 10° NW visible
01 Apr 3.6 21:19:59 13° S 21:24:21 55° W 21:29:22 10° NNW visible
02 Apr 2.9 20:42:45 11° SSE 20:47:38 71° ENE 20:52:42 10° N visible
02 Apr 5.6 22:24:12 10° SW 22:27:10 15° W 22:30:09 10° NW visible
03 Apr 3.7 20:06:34 10° SE 20:11:06 34° ENE 20:15:41 10° N visible
03 Apr 4.5 21:45:44 11° SSW 21:50:07 32° W 21:54:41 10° NNW visible
04 Apr 3.2 21:08:30 12° S 21:13:15 69° WSW 21:18:21 10° NNW visible
05 Apr 3.1 20:31:38 10° SSE 20:36:36 57° ENE 20:41:35 10° N visible
05 Apr 5.3 22:12:23 10° SW 22:15:59 19° W 22:19:36 10° NW visible
06 Apr 4.0 19:55:51 10° ESE 20:00:08 28° ENE 20:04:26 10° N visible
06 Apr 4.2 21:34:16 10° SSW 21:38:58 40° W 21:43:46 10° NNW visible
07 Apr 3.0 20:57:06 10° SSE 21:02:11 86° WSW 21:07:18 10° NNW visible
07 Apr 5.8 22:40:37 10° WSW 22:41:58 11° W 22:43:18 10° WNW visible
08 Apr 3.4 20:20:45 10° SE 20:25:35 46° ENE 20:30:26 10° N visible
08 Apr 5.0 22:00:44 10° SSW 22:04:49 24° W 22:08:54 10° NW visible
